Regional Weather Roundup
Issued by NWS

Home | Current Version | Previous Version | Text Only | Print | Product List | Glossary On
Versions: 1 2 3 4 5 6 7 8 9 10 11 12 13 14 15 16 17 18 19 20 21 22 23 24 25 26 27
000
ASUS44 KJAN 212310
RWRMS

MISSISSIPPI HOURLY WEATHER ROUNDUP
NATIONAL WEATHER SERVICE JACKSON MS
500 PM CST WED FEB 21 2018

NOTE: "FAIR: INDICATES FEW OR NO CLOUDS BELOW 12,000 FEET WITH NO
SIGNIFICANT WEATHER AND/OR OBSTRUCTIONS TO VISIBILITY.

MSZ001>002-007>008-010>013-018>021-025>028-034>036-220000-
NORTHWEST MISSISSIPPI

CITY           SKY/WX    TMP DP  RH WIND       PRES   REMARKS
BATESVILLE       N/A    N/A N/A N/A MISG        N/A
CLARKSDALE     CLOUDY    48  48 100 N7        30.28S FOG
CLEVELAND      LGT RAIN  50  50 100 N16G23    30.23F
GREENWOOD      TSTM      59  57  93 N13G21    30.19S
GREENVILLE     LGT RAIN  52  50  93 NE18G33   30.20R
OLIVE BRANCH   RAIN      45  45 100 N14       30.32R FOG
OXFORD         LGT RAIN  54  52  94 N9G16     30.27R
TUNICA         RAIN      45  43  93 N14       30.32S
WINONA         MOCLDY    59  59 100 NE13G18   30.19S
$$

MSZ003>006-009-014>017-022>024-029>033-037>039-220000-
NORTHEAST MISSISSIPPI

CITY           SKY/WX    TMP DP  RH WIND       PRES   REMARKS
ABERDEEN       LGT RAIN  66  66 100 VRB6G14   30.23R VSB 1/2
COLUMBUS AFB   FAIR      71  71 100 SE5       30.18F
CORINTH        CLOUDY    55  52  88 N14       30.28S
GOLDN TRIANGLE FAIR      74  67  78 S9        30.19R
STARKVILLE     MOCLDY    70  64  83 CALM      30.19R
TUPELO         FAIR      60  56  86 N15       30.22S
$$

MSZ040-058-220000-
CENTRAL MISSISSIPPI

CITY           SKY/WX    TMP DP  RH WIND       PRES   REMARKS
JACKSON INTL   MOCLDY    79  64  60 SE12      30.12R
JACKSON HAWKNS HVY RAIN  66  62  87 NW13G25   30.16R FOG
MADISON        FAIR      77  63  61 CALM      30.12S
MERIDIAN KEY   FAIR      78  66  66 SE15      30.18S
MERIDIAN NAS   LGT RAIN  75  68  78 S5        30.19F
RAYMOND        TSTM      63  63 100 NW9G15    30.16R VSB 1/2
VICKSBURG VKS  MOCLDY    63  63 100 CALM      30.17R FOG
$$

MSZ059>079-220000-
SOUTH MISSISSIPPI

CITY           SKY/WX    TMP DP  RH WIND       PRES   REMARKS
COLUMBIA       MOCLDY    79  68  69 S15G21    30.21R
HATTIESBURG    FAIR      78  69  73 S15G28    30.20R
LAUREL         FAIR      78  67  68 S14       30.19S
MCCOMB         PTSUNNY   79  66  64 S23G33    30.15R
NATCHEZ        CLOUDY    66  65  96 N6        30.13S
PINE BELT      FAIR      78  68  71 S14G20    30.20R
$$

MSZ080>082-220000-
COASTAL MISSISSIPPI

CITY           SKY/WX    TMP DP  RH WIND       PRES   REMARKS
BAY ST LOUIS   MOCLDY    75  72  88 SE10      30.20R
BILOXI         MOCLDY    75  72  88 SE12      30.22S
PASCAGOULA     CLOUDY    75  70  84 SE10      30.23R
GULFPORT       CLOUDY    74  73  97 SE16      30.21R FOG
$$

LAZ007>009-015>016-023>026-220000-
NORTHEAST LOUISIANA

CITY           SKY/WX    TMP DP  RH WIND       PRES   REMARKS
BASTROP        CLOUDY    55  55  98 NE10G18   30.17S
TALLULAH/VBURG HVY RAIN  60  60 100 N10       30.16F FOG
VIDALIA        CLOUDY    66  64  96 N7        30.11S
$$




USA.gov is the U.S. government's official web portal to all federal, state and local government web resources and services.